Regional Weather Roundup
Issued by NWS

Home | Current Version | Previous Version | Graphics & Text | Print | Product List | Glossary On
Versions: 1 2 3 4 5 6 7 8 9 10 11 12 13 14 15 16 17 18 19 20 21 22 23 24 25 26 27 28 29 30 31 32 33 34 35 36 37 38 39 40 41 42 43 44 45 46 47 48 49 50
000
ASUS43 KLMK 280502
RWRKY
KENTUCKY REGIONAL WEATHER ROUNDUP
NATIONAL WEATHER SERVICE LOUISVILLE KY
100 AM EDT TUE JUL 28 2015

NOTE "FAIR" INDICATES FEW OR NO CLOUDS BELOW 12,000 FEET
WITH NO SIGNIFICANT WEATHER AND/OR OBSTRUCTIONS TO VISIBILITY.

KYZ001>023-026-027-061>063-070>075-280600-
WESTERN AND SOUTH CENTRAL KENTUCKY

CITY           SKY/WX    TMP DP  RH WIND       PRES   REMARKS
PADUCAH        CLOUDY    78  74  87 CALM      29.95F
HENDERSON      CLOUDY    75  70  83 CALM      29.94F
OWENSBORO      CLOUDY    77  73  87 S3        29.96F
HOPKINSVILLE   NOT AVBL
BOWLING GREEN  CLOUDY    77  71  82 CALM      29.98F
GLASGOW        NOT AVBL
$$

KYZ024-025-028>034-038-045-046-053-280600-
NORTH CENTRAL KENTUCKY

CITY           SKY/WX    TMP DP  RH WIND       PRES   REMARKS
LOUISVILLE/SDF CLOUDY    83  75  77 E3        29.96F HX  90
LOUISVILLE/LOU PTCLDY    82  75  79 CALM      29.98F
FORT KNOX      NOT AVBL
$$

KYZ035>037-039>044-047>052-055>060-089>105-280600-
NORTHEAST KENTUCKY

CITY           SKY/WX    TMP DP  RH WIND       PRES   REMARKS
LEXINGTON      PTCLDY    75  71  87 SE5       30.01F
COVINGTON      CLOUDY    77  72  84 E3        30.01F
FRANKFORT      PTCLDY    77  72  84 E6        29.99F
$$

KYZ054-064>069-076>088-106>120-280600-
SOUTHEAST KENTUCKY

CITY           SKY/WX    TMP DP  RH WIND       PRES   REMARKS
JACKSON        MOCLDY    74  72  93 CALM      30.05R FOG
LONDON         CLEAR     74  69  85 CALM      30.04S HAZE
SOMERSET       NOT AVBL
MIDDLESBORO    NOT AVBL
MONTICELLO     CLEAR     74  74 100 CALM      30.04F FOG
$$



USA.gov is the U.S. government's official web portal to all federal, state and local government web resources and services.